When you browse on this site, cookies collect data to enhance your experience and personalize the content and advertising you see.
Visit our Privacy Policy to learn more. By continuing to use the site, you agree to this use of cookies and data.
  • In Portugal
  • List of Countries
  • For 7 days
  • Water Temperature
  • Satellite Maps
  • Weather Map
  • Weather Widgets
  • user-avatar
    Login

    Hourly Weather Yenakievo

    Today, 23 May, Thursday

    Time Temperature Precipitation Wind Pressure Humidity
    00:00 +14°C° 0.2 mm 3 mps 739 mmHg 92%
    01:00 +14°C° 0.1 mm 3 mps 739 mmHg 92%
    02:00 +13°C° 0.1 mm 3 mps 739 mmHg 92%
    03:00 +14°C° 0 mm 2 mps 738 mmHg 92%
    04:00 +14°C° 0 mm 2 mps 738 mmHg 90%
    05:00 +14°C° 0 mm 2 mps 738 mmHg 89%
    06:00 +14°C° 0 mm 2 mps 738 mmHg 87%
    07:00 +16°C° 0 mm 3 mps 738 mmHg 80%
    08:00 +18°C° 0 mm 3 mps 738 mmHg 73%
    09:00 +19°C° 0 mm 4 mps 738 mmHg 66%
    10:00 +20°C° 0.3 mm 4 mps 738 mmHg 62%
    11:00 +21°C° 0.3 mm 4 mps 738 mmHg 58%
    12:00 +22°C° 0.3 mm 4 mps 738 mmHg 54%
    13:00 +22°C° 0.5 mm 5 mps 738 mmHg 55%
    14:00 +22°C° 0.5 mm 5 mps 738 mmHg 55%
    15:00 +22°C° 0.5 mm 5 mps 738 mmHg 56%
    16:00 +22°C° 0.3 mm 5 mps 738 mmHg 59%
    17:00 +22°C° 0.3 mm 4 mps 738 mmHg 62%
    18:00 +21°C° 0.3 mm 4 mps 738 mmHg 65%
    19:00 +20°C° 0.1 mm 3 mps 738 mmHg 70%
    20:00 +19°C° 0.1 mm 3 mps 738 mmHg 74%
    21:00 +18°C° 0.1 mm 2 mps 738 mmHg 78%
    22:00 +17°C° 0 mm 2 mps 738 mmHg 80%
    23:00 +17°C° 0 mm 2 mps 738 mmHg 83%

    Tomorrow, 24 May, Friday

    Time Temperature Precipitation Wind Pressure Humidity
    00:00 +16°C° 0 mm 2 mps 738 mmHg 85%
    01:00 +16°C° 0 mm 2 mps 738 mmHg 86%
    02:00 +15°C° 0 mm 2 mps 738 mmHg 87%
    03:00 +15°C° 0 mm 2 mps 738 mmHg 88%
    04:00 +15°C° 0 mm 2 mps 738 mmHg 87%
    05:00 +16°C° 0 mm 2 mps 739 mmHg 87%
    06:00 +16°C° 0 mm 2 mps 739 mmHg 86%
    07:00 +18°C° 0 mm 2 mps 739 mmHg 79%
    08:00 +20°C° 0 mm 2 mps 739 mmHg 72%
    09:00 +23°C° 0 mm 2 mps 739 mmHg 65%
    10:00 +24°C° 0 mm 2 mps 739 mmHg 59%
    11:00 +25°C° 0 mm 2 mps 739 mmHg 53%
    12:00 +26°C° 0 mm 1 mps 739 mmHg 48%
    13:00 +26°C° 0 mm 2 mps 739 mmHg 46%
    14:00 +27°C° 0 mm 2 mps 739 mmHg 45%
    15:00 +27°C° 0 mm 2 mps 739 mmHg 43%
    16:00 +26°C° 0.4 mm 2 mps 739 mmHg 50%
    17:00 +25°C° 0.4 mm 2 mps 739 mmHg 56%
    18:00 +24°C° 0.4 mm 2 mps 739 mmHg 63%
    19:00 +23°C° 0.8 mm 2 mps 739 mmHg 67%
    20:00 +20°C° 0.8 mm 2 mps 739 mmHg 70%
    21:00 +19°C° 0.8 mm 2 mps 739 mmHg 74%
    22:00 +20°C° 0.1 mm 1 mps 739 mmHg 76%
    23:00 +19°C° 0.1 mm 1 mps 739 mmHg 77%

    Day after tomorrow, 25 May, Saturday

    Time Temperature Precipitation Wind Pressure Humidity
    00:00 +19°C° 0.1 mm 1 mps 739 mmHg 78%
    01:00 +18°C° 0 mm 1 mps 739 mmHg 78%
    02:00 +17°C° 0 mm 2 mps 739 mmHg 77%
    03:00 +16°C° 0 mm 2 mps 739 mmHg 77%
    04:00 +16°C° 0 mm 1 mps 739 mmHg 75%
    05:00 +16°C° 0 mm 1 mps 739 mmHg 74%
    06:00 +18°C° 0 mm 1 mps 739 mmHg 72%
    07:00 +19°C° 0 mm 1 mps 739 mmHg 67%
    08:00 +20°C° 0 mm 2 mps 739 mmHg 62%
    09:00 +23°C° 0 mm 2 mps 739 mmHg 56%
    10:00 +24°C° 0.3 mm 2 mps 739 mmHg 54%
    11:00 +25°C° 0.3 mm 2 mps 739 mmHg 51%
    12:00 +26°C° 0.3 mm 3 mps 738 mmHg 49%
    13:00 +26°C° 0.1 mm 2 mps 738 mmHg 50%
    14:00 +26°C° 0.1 mm 2 mps 738 mmHg 50%
    15:00 +26°C° 0.1 mm 2 mps 737 mmHg 51%
    16:00 +24°C° 2.5 mm 2 mps 737 mmHg 60%
    17:00 +23°C° 2.5 mm 2 mps 737 mmHg 68%
    18:00 +20°C° 2.5 mm 3 mps 737 mmHg 77%
    19:00 +20°C° 2.7 mm 2 mps 737 mmHg 79%
    20:00 +20°C° 2.7 mm 1 mps 737 mmHg 82%
    21:00 +19°C° 2.7 mm 1 mps 737 mmHg 85%
    22:00 +18°C° 3 mm 2 mps 736 mmHg 86%
    23:00 +18°C° 3 mm 3 mps 736 mmHg 86%

    26 May, Sunday

    Time Temperature Precipitation Wind Pressure Humidity
    00:00 +17°C° 3 mm 4 mps 736 mmHg 87%
    01:00 +17°C° 5.9 mm 4 mps 736 mmHg 87%
    02:00 +16°C° 5.9 mm 5 mps 736 mmHg 86%
    03:00 +16°C° 5.9 mm 6 mps 736 mmHg 86%
    04:00 +16°C° 2.3 mm 5 mps 736 mmHg 86%
    05:00 +17°C° 2.3 mm 4 mps 737 mmHg 86%
    06:00 +17°C° 2.3 mm 4 mps 737 mmHg 86%
    07:00 +17°C° 0.4 mm 4 mps 737 mmHg 85%
    08:00 +17°C° 0.4 mm 5 mps 737 mmHg 84%
    09:00 +17°C° 0.4 mm 5 mps 737 mmHg 83%
    10:00 +20°C° 0.5 mm 5 mps 738 mmHg 76%
    11:00 +21°C° 0.5 mm 5 mps 738 mmHg 70%
    12:00 +22°C° 0.5 mm 5 mps 738 mmHg 63%
    13:00 +23°C° 0.8 mm 5 mps 738 mmHg 62%
    14:00 +23°C° 0.8 mm 5 mps 738 mmHg 61%
    15:00 +24°C° 0.8 mm 6 mps 738 mmHg 60%
    16:00 +25°C° 0.3 mm 5 mps 738 mmHg 63%
    17:00 +23°C° 0.3 mm 5 mps 738 mmHg 66%
    18:00 +23°C° 0.3 mm 5 mps 738 mmHg 68%
    19:00 +22°C° 0.1 mm 4 mps 738 mmHg 72%
    20:00 +21°C° 0.1 mm 4 mps 739 mmHg 75%
    21:00 +20°C° 0.1 mm 3 mps 739 mmHg 78%
    22:00 +19°C° 0 mm 3 mps 739 mmHg 81%
    23:00 +18°C° 0 mm 3 mps 740 mmHg 83%

    27 May, Monday

    Time Temperature Precipitation Wind Pressure Humidity
    00:00 +18°C° 0 mm 3 mps 740 mmHg 85%
    01:00 +17°C° 0 mm 3 mps 740 mmHg 87%
    02:00 +17°C° 0 mm 3 mps 741 mmHg 88%
    03:00 +16°C° 0 mm 2 mps 741 mmHg 90%
    04:00 +17°C° 0 mm 2 mps 742 mmHg 89%
    05:00 +17°C° 0 mm 2 mps 742 mmHg 88%
    06:00 +17°C° 0 mm 2 mps 742 mmHg 88%
    07:00 +19°C° 0 mm 3 mps 743 mmHg 81%
    08:00 +20°C° 0 mm 3 mps 743 mmHg 74%
    09:00 +22°C° 0 mm 4 mps 744 mmHg 67%
    10:00 +23°C° 0 mm 4 mps 744 mmHg 63%
    11:00 +25°C° 0 mm 4 mps 744 mmHg 58%
    12:00 +26°C° 0 mm 4 mps 745 mmHg 54%
    13:00 +26°C° 0 mm 4 mps 745 mmHg 52%
    14:00 +27°C° 0 mm 4 mps 745 mmHg 50%
    15:00 +28°C° 0 mm 3 mps 745 mmHg 48%
    16:00 +27°C° 0 mm 3 mps 745 mmHg 51%
    17:00 +27°C° 0 mm 3 mps 745 mmHg 54%
    18:00 +27°C° 0 mm 2 mps 745 mmHg 57%
    19:00 +25°C° 0 mm 2 mps 745 mmHg 62%
    20:00 +24°C° 0 mm 2 mps 745 mmHg 67%
    21:00 +21°C° 0 mm 3 mps 745 mmHg 71%
    22:00 +20°C° 0 mm 2 mps 745 mmHg 74%
    23:00 +20°C° 0 mm 2 mps 745 mmHg 77%

    28 May, Tuesday

    Time Temperature Precipitation Wind Pressure Humidity
    00:00 +19°C° 0 mm 2 mps 746 mmHg 80%
    01:00 +19°C° 0 mm 2 mps 746 mmHg 80%
    02:00 +19°C° 0 mm 1 mps 746 mmHg 80%
    03:00 +19°C° 0 mm 1 mps 746 mmHg 79%
    04:00 +19°C° 0 mm 1 mps 746 mmHg 79%
    05:00 +19°C° 0 mm 1 mps 746 mmHg 78%
    06:00 +19°C° 0 mm 1 mps 746 mmHg 78%
    07:00 +20°C° 0 mm 2 mps 746 mmHg 73%
    08:00 +21°C° 0 mm 3 mps 746 mmHg 67%
    09:00 +24°C° 0 mm 3 mps 746 mmHg 62%
    10:00 +25°C° 0 mm 3 mps 746 mmHg 58%
    11:00 +26°C° 0 mm 4 mps 746 mmHg 55%
    12:00 +27°C° 0 mm 4 mps 746 mmHg 51%
    13:00 +28°C° 0 mm 4 mps 746 mmHg 51%
    14:00 +28°C° 0 mm 4 mps 746 mmHg 51%
    15:00 +29°C° 0 mm 4 mps 745 mmHg 50%
    16:00 +28°C° 0 mm 4 mps 745 mmHg 54%
    17:00 +28°C° 0 mm 4 mps 745 mmHg 57%
    18:00 +28°C° 0 mm 3 mps 745 mmHg 60%
    19:00 +26°C° 0 mm 3 mps 745 mmHg 63%
    20:00 +25°C° 0 mm 3 mps 744 mmHg 67%
    21:00 +22°C° 0 mm 3 mps 744 mmHg 71%
    22:00 +22°C° 0 mm 3 mps 744 mmHg 72%
    23:00 +21°C° 0 mm 3 mps 744 mmHg 73%
    Show more